Location: G�nzburg
(48.4565°N, 10.3217°E)
Time: 04:03:26
(UTC+01:00)

ISS - Visible Passes

Search period start: 22 February 2018 00:00
Search period end: 04 March 2018 00:00
Orbit: 403 x 407 km, 51.6° (Epoch: 22 February)

Date Brightness Start Highest point End Pass type
(mag) Time Alt. Az. Time Alt. Az. Time Alt. Az.
26 Feb -1.0 06:24:41 10° S 06:26:55 17° SE 06:29:09 10° E visible
27 Feb -0.5 05:34:33 10° SE 05:34:55 10° SE 05:35:16 10° SE visible
28 Feb -2.2 06:15:38 10° SSW 06:18:36 33° SE 06:21:35 10° E visible
01 Mar -1.5 05:24:06 11° S 05:26:29 20° SE 05:29:00 10° E visible
02 Mar -1.0 04:34:15 12° SE 04:34:25 12° SE 04:35:52 10° ESE visible
02 Mar -3.4 06:07:07 10° SW 06:10:22 62° SSE 06:13:37 10° ENE visible
03 Mar -2.7 05:16:56 27° SSW 05:18:08 39° SSE 05:21:14 10° ENE visible
